GW3210 Weather Reports


time (UTC)temp
F
wind
direction
speed
knots
gust
knots
rain 1hr
in
rain 24hr
in
rain mn
in
humidity
%
barometer
mb
20260901185618 63 0.0 0.9 0.00 0.00 0.00 59 1013.9
20260901184616 62 225 1.7 3.5 0.00 0.00 0.00 59 1013.9
20260901183615 62 270 1.7 2.6 0.00 0.00 0.00 60 1014.0
20260901182635 62 270 0.9 1.7 0.00 0.00 0.00 61 1013.9
20260901181616 61 270 3.5 5.2 0.00 0.00 0.00 64 1014.0
20260901180615 60 270 1.7 4.3 0.00 0.00 0.00 64 1014.0
20260901175635 59 180 1.7 3.5 0.00 0.00 0.00 66 1014.1
20260901174615 59 158 0.9 2.6 0.00 0.00 0.00 67 1014.2
20260901173615 59 225 1.7 2.6 0.00 0.00 0.00 68 1014.0
20260901172615 58 248 0.9 1.7 0.00 0.00 0.00 68 1014.0
20260901171615 58 158 2.6 3.5 0.00 0.00 0.00 68 1014.0
20260901170615 58 203 0.9 1.7 0.00 0.00 0.00 68 1014.0
20260901165635 58 158 2.6 3.5 0.00 0.00 0.00 68 1013.9
20260901164615 58 158 2.6 4.3 0.00 0.00 0.00 68 1013.8
20260901163635 58 203 0.9 1.7 0.00 0.00 0.00 67 1013.9
20260901162615 58 135 3.5 4.3 0.00 0.00 0.00 66 1013.8
20260901161615 58 180 1.7 3.5 0.00 0.00 0.00 66 1013.8
20260901160617 58 113 1.7 3.5 0.00 0.00 0.00 65 1013.8
20260901155617 59 158 1.7 3.5 0.00 0.00 0.00 65 1013.8
20260901154637 59 158 2.6 3.5 0.00 0.00 0.00 64 1013.9
20260901153617 59 158 1.7 2.6 0.00 0.00 0.00 63 1013.9
20260901152617 59 158 1.7 3.5 0.00 0.00 0.00 63 1013.8
20260901151617 59 135 2.6 4.3 0.00 0.00 0.00 63 1013.7
20260901150617 59 135 3.5 4.3 0.00 0.00 0.00 63 1013.6
20260901145657 59 158 1.7 4.3 0.00 0.00 0.00 63 1013.6
20260901144617 58 135 2.6 4.3 0.00 0.00 0.00 63 1013.5
20260901143617 58 0.0 0.9 0.00 0.00 0.00 63 1013.6
20260901142657 58 158 1.7 2.6 0.00 0.00 0.00 64 1013.6
20260901141637 58 0.0 0.9 0.00 0.00 0.00 64 1013.7
20260901140617 58 135 1.7 2.6 0.00 0.00 0.00 64 1013.7
20260901135617 58 135 0.9 1.7 0.00 0.00 0.00 64 1013.6
20260901134617 58 135 0.9 1.7 0.00 0.00 0.00 64 1013.6
20260901133637 58 0.0 0.9 0.00 0.00 0.00 64 1013.5
20260901132617 58 135 0.9 1.7 0.00 0.00 0.00 64 1013.5
20260901132517 58 135 0.9 1.7 0.00 0.00 0.00 64 1013.6
20260901131517 58 0.0 1.7 0.00 0.00 0.00 65 1013.5
20260901130517 58 0.0 0.9 0.00 0.00 0.00 65 1013.6
20260901125516 58 0.0 0.9 0.00 0.00 0.00 65 1013.4
20260901124516 57 0.0 0.0 0.00 0.00 0.00 65 1013.5
20260901123517 57 158 0.9 1.7 0.00 0.00 0.00 65 1013.5
20260901122517 57 180 1.7 3.5 0.00 0.00 0.00 65 1013.5
20260901121516 57 135 2.6 5.2 0.00 0.00 0.00 65 1013.6
20260901120536 57 158 4.3 7.8 0.00 0.00 0.00 65 1013.6
20260901115516 57 135 3.5 6.1 0.00 0.00 0.00 65 1013.5
20260901114517 57 135 2.6 3.5 0.00 0.00 0.00 65 1013.4
20260901113516 57 135 2.6 4.3 0.00 0.00 0.00 65 1013.3
20260901112537 57 135 1.7 4.3 0.00 0.00 0.00 65 1013.2
20260901111516 58 158 2.6 5.2 0.00 0.00 0.00 65 1013.2
20260901110517 58 135 2.6 3.5 0.00 0.00 0.00 64 1013.1
20260901105516 58 135 1.7 4.3 0.00 0.00 0.00 64 1013.1
20260901104517 58 158 1.7 2.6 0.00 0.00 0.00 64 1013.1
20260901103516 58 158 2.6 5.2 0.00 0.00 0.00 64 1013.1
20260901102516 58 158 2.6 4.3 0.00 0.00 0.00 64 1013.1
20260901101516 59 135 2.6 4.3 0.00 0.00 0.00 63 1013.0
20260901100536 59 135 3.5 4.3 0.00 0.00 0.00 63 1013.0
20260901095517 59 180 1.7 3.5 0.00 0.00 0.00 63 1012.9
20260901094516 59 135 3.5 6.1 0.00 0.00 0.00 62 1012.8
20260901093516 59 158 2.6 4.3 0.00 0.00 0.00 62 1012.8
20260901092516 59 135 2.6 4.3 0.00 0.00 0.00 62 1012.7
20260901091537 59 135 2.6 3.5 0.00 0.00 0.00 62 1012.6
20260901090516 60 135 2.6 3.5 0.00 0.00 0.00 61 1012.5
20260901085536 60 135 0.9 1.7 0.00 0.00 0.00 61 1012.5
20260901084516 60 135 0.9 0.9 0.00 0.00 0.00 60 1012.4
20260901083516 61 135 2.6 3.5 0.00 0.00 0.00 59 1012.5
20260901082516 61 158 2.6 3.5 0.00 0.00 0.00 58 1012.6
20260901081516 62 135 2.6 5.2 0.00 0.00 0.00 57 1012.6
20260901080516 63 135 1.7 2.6 0.00 0.00 0.00 56 1012.6
20260901075516 63 113 0.9 1.7 0.00 0.00 0.00 55 1012.3
20260901074516 63 135 2.6 2.6 0.00 0.00 0.00 55 1012.2
20260901073516 64 180 2.6 3.5 0.00 0.00 0.00 54 1012.2
20260901072516 64 158 2.6 4.3 0.00 0.00 0.00 54 1012.1
20260901065537 67 180 0.9 1.7 0.00 0.00 0.00 51 1011.6
20260901064517 67 270 0.9 0.9 0.00 0.00 0.00 52 1011.5
20260901063537 67 270 3.5 5.2 0.00 0.00 0.00 51 1011.4
20260901062517 68 270 2.6 3.5 0.00 0.00 0.00 50 1011.4
20260901061517 68 293 0.9 1.7 0.00 0.00 0.00 48 1011.2
20260901060517 69 270 0.9 0.9 0.00 0.00 0.00 47 1011.0
20260901055549 70 0.0 0.9 0.00 0.00 0.00 46 1010.9
20260901055417 70 0.0 0.9 0.00 0.00 0.00 46 1010.8
20260901054437 70 248 1.7 2.6 0.00 0.00 0.00 45 1010.7
20260901053436 70 293 1.7 1.7 0.00 0.00 0.00 44 1010.7
20260901052417 71 270 3.5 5.2 0.00 0.00 0.00 44 1010.6
20260901051437 71 270 1.7 2.6 0.00 0.00 0.00 43 1010.6
20260901050417 72 293 1.7 2.6 0.00 0.00 0.00 43 1010.4
20260901045416 72 315 2.6 3.5 0.00 0.00 0.00 42 1010.4
20260901044417 72 315 1.7 2.6 0.00 0.00 0.00 40 1010.2
20260901043416 71 248 1.7 1.7 0.00 0.00 0.00 38 1010.1
20260901042418 72 0.0 0.0 0.00 0.00 0.00 37 1010.1
20260901041436 72 0.0 0.0 0.00 0.00 0.00 36 1009.9
20260901040416 73 0.0 0.0 0.00 0.00 0.00 35 1009.9
20260901035416 74 0.0 0.0 0.00 0.00 0.00 34 1009.7
20260901034416 75 0.0 0.0 0.00 0.00 0.00 32 1009.7
20260901033416 76 0.0 0.9 0.00 0.00 0.00 30 1009.5
20260901032416 77 203 0.9 1.7 0.00 0.00 0.00 28 1009.3
20260901031416 77 203 1.7 2.6 0.00 0.00 0.00 27 1009.3
20260901030417 78 158 1.7 2.6 0.00 0.00 0.00 29 1009.3
20260901025416 79 158 0.9 2.6 0.00 0.00 0.00 30 1009.3
20260901024416 80 180 0.9 0.9 0.00 0.00 0.00 30 1009.3
20260901023416 80 248 0.9 1.7 0.00 0.00 0.00 29 1009.2
20260901022416 81 0.0 0.9 0.00 0.00 0.00 28 1009.2
20260901021416 82 203 1.7 2.6 0.00 0.00 0.00 27 1009.2
20260901020416 83 203 0.9 1.7 0.00 0.00 0.00 25 1009.1
20260901015416 84 248 1.7 2.6 0.00 0.00 0.00 23 1009.2
20260901014416 84 293 2.6 3.5 0.00 0.00 0.00 22 1009.1
20260901013416 85 293 1.7 2.6 0.00 0.00 0.00 22 1009.1
20260901012416 85 270 2.6 5.2 0.00 0.00 0.00 22 1009.2
20260901011416 86 293 1.7 2.6 0.00 0.00 0.00 22 1009.2
20260901010416 86 293 0.9 1.7 0.00 0.00 0.00 22 1009.2
20260901005416 85 270 1.7 3.5 0.00 0.00 0.00 22 1009.4
20260901004436 85 293 0.9 1.7 0.00 0.00 0.00 22 1009.5
20260901003416 86 0.0 0.9 0.00 0.00 0.00 21 1009.4
20260901002416 86 315 1.7 2.6 0.00 0.00 0.00 22 1009.5
20260901001416 85 270 1.7 2.6 0.00 0.00 0.00 23 1009.4
20260901000416 86 270 1.7 2.6 0.00 0.00 0.00 21 1009.5
20260831235416 86 248 1.7 2.6 0.00 0.00 0.00 22 1009.5
20260831234416 86 293 3.5 5.2 0.00 0.00 0.00 23 1009.6
20260831233416 85 315 2.6 4.3 0.00 0.00 0.00 24 1009.6
20260831232416 85 270 3.5 7.0 0.00 0.00 0.00 23 1009.7
20260831231416 85 248 2.6 4.3 0.00 0.00 0.00 25 1009.8
20260831230416 85 203 2.6 5.2 0.00 0.00 0.00 25 1009.8
20260831225456 85 248 5.2 7.0 0.00 0.00 0.00 25 1009.8
20260831224416 85 225 1.7 3.5 0.00 0.00 0.00 25 1009.9
20260831223415 84 270 1.7 3.5 0.00 0.00 0.00 26 1010.1
20260831222416 83 248 1.7 3.5 0.00 0.00 0.00 28 1010.0
20260831221416 84 270 3.5 7.8 0.00 0.00 0.00 27 1010.3
20260831220416 84 225 3.5 7.8 0.00 0.00 0.00 27 1010.3
20260831215415 84 248 3.5 7.0 0.00 0.00 0.00 27 1010.4
20260831214416 83 225 2.6 5.2 0.00 0.00 0.00 28 1010.4
20260831213416 83 270 4.3 7.0 0.00 0.00 0.00 29 1010.5
20260831212415 83 248 5.2 7.0 0.00 0.00 0.00 28 1010.6
20260831211416 82 270 5.2 7.8 0.00 0.00 0.00 29 1010.6
20260831210419 82 270 4.3 8.7 0.00 0.00 0.00 29 1010.7
20260831205436 82 293 4.3 6.1 0.00 0.00 0.00 30 1010.8
20260831204416 82 293 3.5 6.1 0.00 0.00 0.00 31 1010.8
20260831203416 82 293 4.3 6.1 0.00 0.00 0.00 31 1010.8
20260831202416 81 270 4.3 6.1 0.00 0.00 0.00 32 1010.9
20260831201415 81 270 3.5 6.1 0.00 0.00 0.00 32 1011.0
20260831200415 81 315 2.6 5.2 0.00 0.00 0.00 32 1011.2
20260831195415 80 270 4.3 7.8 0.00 0.00 0.00 33 1011.4
20260831194435 80 293 3.5 7.0 0.00 0.00 0.00 33 1011.5
20260831193415 79 315 3.5 5.2 0.00 0.00 0.00 33 1011.6
20260831192418 78 270 2.6 5.2 0.00 0.00 0.00 35 1011.7
20260831191435 77 270 5.2 7.8 0.00 0.00 0.00 35 1012.0